カタログに戻る

STARLINK-4091

運用中通信VLEO
NORAD 52830·PAYLOAD·🇺🇸 United States

打ち上げ Jun 17, 2022 から Cape Canaveral Space Force Station

Loading…

次のパス (今後24時間)

TLE

最新Source: CelesTrak SupGP

元期: Sep 14, 2026, 22:00 UTC

1 52830C 22062A   26257.91715278  .00042444  00000+0  13650-2 0  2573
2 52830  53.1573 254.8237 0001181  97.0264 146.3215 15.31677684    15

AllMySatでSTARLINK-4091をリアルタイム追跡

Download on the App Store